Time,TemperatureF,DewpointF,PressureIn,WindDirection,WindDirectionDegrees,WindSpeedMPH,WindSpeedGustMPH,Humidity,HourlyPrecipIn,Conditions,Clouds,dailyrainin,SoftwareType,DateUTC
2013-12-12 00:07:00,2.5,-4.0,30.68,NW,310,3.0,6.0,74,0.00,,,0.00,weatherlink.com 1.10,2013-12-12 06:07:00,
2013-12-12 00:22:00,2.4,-4.0,30.67,NW,315,6.0,8.0,75,0.00,,,0.00,weatherlink.com 1.10,2013-12-12 06:22:00,
2013-12-12 00:37:00,2.3,-4.0,30.66,NW,310,3.0,7.0,75,0.00,,,0.00,weatherlink.com 1.10,2013-12-12 06:37:00,
2013-12-12 00:52:00,2.2,-4.0,30.66,NW,325,4.0,6.0,75,0.00,,,0.00,weatherlink.com 1.10,2013-12-12 06:52:00,
2013-12-12 01:07:00,2.1,-4.0,30.66,NW,310,2.0,6.0,75,0.00,,,0.00,weatherlink.com 1.10,2013-12-12 07:07:00,
2013-12-12 01:22:00,2.0,-4.0,30.65,NW,310,3.0,4.0,75,0.00,,,0.00,weatherlink.com 1.10,2013-12-12 07:22:00,
2013-12-12 01:37:00,1.8,-4.0,30.66,NW,310,1.0,3.0,75,0.00,,,0.00,weatherlink.com 1.10,2013-12-12 07:37:00,
2013-12-12 01:52:00,1.6,-5.0,30.65,NW,310,0.0,0.0,75,0.00,,,0.00,weatherlink.com 1.10,2013-12-12 07:52:00,
2013-12-12 02:08:00,1.3,-5.0,30.65,NW,310,1.0,2.0,75,0.00,,,0.00,weatherlink.com 1.10,2013-12-12 08:08:00,
2013-12-12 02:23:00,0.6,-6.0,30.66,NW,310,0.0,3.0,75,0.00,,,0.00,weatherlink.com 1.10,2013-12-12 08:23:00,
2013-12-12 02:38:00,-0.8,-7.0,30.65,WNW,302,4.0,4.0,75,0.00,,,0.00,weatherlink.com 1.10,2013-12-12 08:38:00,
2013-12-12 02:53:00,-2.6,-8.0,30.66,South,179,2.0,3.0,76,0.00,,,0.00,weatherlink.com 1.10,2013-12-12 08:53:00,
2013-12-12 03:08:00,-3.7,-9.0,30.66,South,179,2.0,4.0,78,0.00,,,0.00,weatherlink.com 1.10,2013-12-12 09:08:00,
2013-12-12 03:23:00,-4.5,-9.0,30.66,South,179,1.0,3.0,79,0.00,,,0.00,weatherlink.com 1.10,2013-12-12 09:23:00,
2013-12-12 03:38:00,-4.1,-9.0,30.65,South,179,0.0,4.0,81,0.00,,,0.00,weatherlink.com 1.10,2013-12-12 09:38:00,
2013-12-12 03:53:00,-3.9,-8.0,30.64,South,179,0.0,3.0,82,0.00,,,0.00,weatherlink.com 1.10,2013-12-12 09:53:00,
2013-12-12 04:08:00,-3.7,-8.0,30.63,South,179,1.0,4.0,82,0.00,,,0.00,weatherlink.com 1.10,2013-12-12 10:08:00,
2013-12-12 04:23:00,-3.9,-8.0,30.64,South,179,1.0,4.0,82,0.00,,,0.00,weatherlink.com 1.10,2013-12-12 10:23:00,
2013-12-12 04:38:00,-3.9,-8.0,30.64,South,179,1.0,3.0,82,0.00,,,0.00,weatherlink.com 1.10,2013-12-12 10:38:00,
2013-12-12 04:53:00,-4.1,-8.0,30.64,South,179,2.0,3.0,82,0.00,,,0.00,weatherlink.com 1.10,2013-12-12 10:53:00,
2013-12-12 05:08:00,-4.4,-9.0,30.63,South,178,3.0,4.0,82,0.00,,,0.00,weatherlink.com 1.10,2013-12-12 11:08:00,
2013-12-12 05:24:00,-4.8,-9.0,30.63,South,178,3.0,4.0,82,0.00,,,0.00,weatherlink.com 1.10,2013-12-12 11:24:00,
2013-12-12 05:39:00,-5.2,-9.0,30.62,South,178,3.0,4.0,82,0.00,,,0.00,weatherlink.com 1.10,2013-12-12 11:39:00,
2013-12-12 05:54:00,-5.3,-9.0,30.62,South,178,3.0,4.0,82,0.00,,,0.00,weatherlink.com 1.10,2013-12-12 11:54:00,
2013-12-12 06:09:00,-5.4,-9.0,30.62,South,178,1.0,3.0,83,0.00,,,0.00,weatherlink.com 1.10,2013-12-12 12:09:00,
2013-12-12 06:24:00,-5.6,-10.0,30.62,South,178,2.0,3.0,83,0.00,,,0.00,weatherlink.com 1.10,2013-12-12 12:24:00,
2013-12-12 06:39:00,-5.7,-10.0,30.62,South,178,3.0,4.0,83,0.00,,,0.00,weatherlink.com 1.10,2013-12-12 12:39:00,
2013-12-12 06:54:00,-5.3,-9.0,30.61,South,178,3.0,6.0,84,0.00,,,0.00,weatherlink.com 1.10,2013-12-12 12:54:00,
2013-12-12 07:09:00,-5.0,-9.0,30.62,South,178,2.0,4.0,84,0.00,,,0.00,weatherlink.com 1.10,2013-12-12 13:09:00,
2013-12-12 07:24:00,-4.1,-8.0,30.61,South,178,2.0,5.0,85,0.00,,,0.00,weatherlink.com 1.10,2013-12-12 13:24:00,
2013-12-12 07:39:00,-3.5,-7.0,30.59,South,180,5.0,7.0,84,0.00,,,0.00,weatherlink.com 1.10,2013-12-12 13:39:00,
2013-12-12 07:54:00,-2.8,-7.0,30.60,South,178,4.0,9.0,84,0.00,,,0.00,weatherlink.com 1.10,2013-12-12 13:54:00,
2013-12-12 08:09:00,-1.8,-5.0,30.59,South,180,3.0,10.0,85,0.00,,,0.00,weatherlink.com 1.10,2013-12-12 14:09:00,
2013-12-12 08:24:00,0.3,-3.0,30.59,South,184,6.0,10.0,85,0.00,,,0.00,weatherlink.com 1.10,2013-12-12 14:24:00,
2013-12-12 08:39:00,1.9,-2.0,30.59,South,182,7.0,9.0,83,0.00,,,0.00,weatherlink.com 1.10,2013-12-12 14:39:00,
2013-12-12 08:55:00,2.4,-2.0,30.58,South,182,9.0,11.0,80,0.00,,,0.00,weatherlink.com 1.10,2013-12-12 14:55:00,
2013-12-12 09:10:00,3.1,-2.0,30.57,SSW,201,11.0,11.0,79,0.00,,,0.00,weatherlink.com 1.10,2013-12-12 15:10:00,
2013-12-12 09:25:00,4.1,-1.0,30.56,SSW,194,6.0,10.0,78,0.00,,,0.00,weatherlink.com 1.10,2013-12-12 15:25:00,
2013-12-12 09:40:00,5.4,-1.0,30.56,SSW,194,7.0,10.0,76,0.00,,,0.00,weatherlink.com 1.10,2013-12-12 15:40:00,
2013-12-12 09:55:00,6.6,0.0,30.55,South,180,6.0,11.0,75,0.00,,,0.00,weatherlink.com 1.10,2013-12-12 15:55:00,
2013-12-12 10:10:00,7.6,1.0,30.55,South,189,7.0,12.0,74,0.00,,,0.00,weatherlink.com 1.10,2013-12-12 16:10:00,
2013-12-12 10:25:00,8.8,1.0,30.54,South,187,9.0,13.0,71,0.00,,,0.00,weatherlink.com 1.10,2013-12-12 16:25:00,
2013-12-12 10:40:00,10.0,2.0,30.53,South,190,7.0,12.0,70,0.00,,,0.00,weatherlink.com 1.10,2013-12-12 16:40:00,
2013-12-12 10:55:00,10.8,3.0,30.52,SSW,196,7.0,11.0,69,0.00,,,0.00,weatherlink.com 1.10,2013-12-12 16:55:00,
2013-12-12 11:10:00,12.2,3.0,30.52,SSW,210,5.0,11.0,67,0.00,,,0.00,weatherlink.com 1.10,2013-12-12 17:10:00,
2013-12-12 11:25:00,13.7,4.0,30.51,SSW,210,3.0,11.0,66,0.00,,,0.00,weatherlink.com 1.10,2013-12-12 17:25:00,
2013-12-12 11:40:00,14.0,5.0,30.51,SW,220,6.0,11.0,66,0.00,,,0.00,weatherlink.com 1.10,2013-12-12 17:40:00,
2013-12-12 11:55:00,15.9,6.0,30.51,SW,229,4.0,9.0,65,0.00,,,0.00,weatherlink.com 1.10,2013-12-12 17:55:00,
2013-12-12 12:10:00,17.1,6.0,30.49,SW,217,3.0,12.0,63,0.00,,,0.00,weatherlink.com 1.10,2013-12-12 18:10:00,
2013-12-12 12:26:00,18.6,8.0,30.49,WSW,244,9.0,17.0,63,0.00,,,0.00,weatherlink.com 1.10,2013-12-12 18:26:00,
2013-12-12 12:41:00,18.9,8.0,30.48,NW,310,5.0,16.0,63,0.00,,,0.00,weatherlink.com 1.10,2013-12-12 18:41:00,
2013-12-12 12:56:00,19.6,9.0,30.48,WSW,238,9.0,14.0,64,0.00,,,0.00,weatherlink.com 1.10,2013-12-12 18:56:00,
2013-12-12 13:11:00,20.2,9.0,30.47,West,279,10.0,21.0,63,0.00,,,0.00,weatherlink.com 1.10,2013-12-12 19:11:00,
2013-12-12 13:26:00,20.6,10.0,30.46,West,267,7.0,16.0,63,0.00,,,0.00,weatherlink.com 1.10,2013-12-12 19:26:00,
2013-12-12 13:41:00,21.0,10.0,30.45,West,268,2.0,17.0,62,0.00,,,0.00,weatherlink.com 1.10,2013-12-12 19:41:00,
2013-12-12 13:56:00,21.3,11.0,30.45,West,265,5.0,16.0,64,0.00,,,0.00,weatherlink.com 1.10,2013-12-12 19:56:00,
2013-12-12 14:11:00,21.8,11.0,30.45,WSW,242,10.0,16.0,63,0.00,,,0.00,weatherlink.com 1.10,2013-12-12 20:11:00,
2013-12-12 14:26:00,22.0,11.0,30.45,WNW,288,13.0,16.0,64,0.00,,,0.00,weatherlink.com 1.10,2013-12-12 20:26:00,
2013-12-12 14:41:00,21.7,12.0,30.45,NNW,329,13.0,16.0,65,0.00,,,0.00,weatherlink.com 1.10,2013-12-12 20:41:00,
2013-12-12 14:56:00,21.8,12.0,30.45,West,268,7.0,16.0,66,0.00,,,0.00,weatherlink.com 1.10,2013-12-12 20:56:00,
2013-12-12 15:11:00,21.6,12.0,30.45,WNW,303,5.0,14.0,67,0.00,,,0.00,weatherlink.com 1.10,2013-12-12 21:11:00,
2013-12-12 15:26:00,21.7,13.0,30.44,WSW,247,4.0,15.0,68,0.00,,,0.00,weatherlink.com 1.10,2013-12-12 21:26:00,
2013-12-12 15:42:00,21.6,13.0,30.44,SW,233,7.0,14.0,69,0.00,,,0.00,weatherlink.com 1.10,2013-12-12 21:42:00,
2013-12-12 15:57:00,21.3,13.0,30.44,West,263,4.0,10.0,69,0.00,,,0.00,weatherlink.com 1.10,2013-12-12 21:57:00,
2013-12-12 16:12:00,20.9,13.0,30.43,West,261,2.0,8.0,70,0.00,,,0.00,weatherlink.com 1.10,2013-12-12 22:12:00,
2013-12-12 16:27:00,20.4,12.0,30.43,WSW,250,1.0,5.0,71,0.00,,,0.00,weatherlink.com 1.10,2013-12-12 22:27:00,
2013-12-12 16:42:00,20.1,12.0,30.44,West,259,3.0,6.0,72,0.00,,,0.00,weatherlink.com 1.10,2013-12-12 22:42:00,
2013-12-12 16:57:00,19.7,12.0,30.43,West,265,4.0,5.0,73,0.00,,,0.00,weatherlink.com 1.10,2013-12-12 22:57:00,
2013-12-12 17:12:00,19.6,12.0,30.43,West,270,1.0,4.0,73,0.00,,,0.00,weatherlink.com 1.10,2013-12-12 23:12:00,
2013-12-12 17:27:00,18.7,12.0,30.42,WSW,257,3.0,5.0,75,0.00,,,0.00,weatherlink.com 1.10,2013-12-12 23:27:00,
2013-12-12 17:42:00,18.4,12.0,30.42,WSW,257,3.0,5.0,76,0.00,,,0.00,weatherlink.com 1.10,2013-12-12 23:42:00,
2013-12-12 17:57:00,18.4,12.0,30.42,SW,232,0.0,6.0,76,0.00,,,0.00,weatherlink.com 1.10,2013-12-12 23:57:00,
2013-12-12 18:12:00,18.7,12.0,30.42,West,261,2.0,5.0,76,0.00,,,0.00,weatherlink.com 1.10,2013-12-13 00:12:00,
2013-12-12 18:27:00,18.5,12.0,30.42,WSW,243,0.0,4.0,76,0.00,,,0.00,weatherlink.com 1.10,2013-12-13 00:27:00,
2013-12-12 18:42:00,18.1,12.0,30.42,SW,236,0.0,3.0,76,0.00,,,0.00,weatherlink.com 1.10,2013-12-13 00:42:00,
2013-12-12 18:57:00,17.3,11.0,30.42,SW,236,0.0,1.0,77,0.00,,,0.00,weatherlink.com 1.10,2013-12-13 00:57:00,
2013-12-12 19:13:00,16.2,11.0,30.41,SW,236,2.0,3.0,78,0.00,,,0.00,weatherlink.com 1.10,2013-12-13 01:13:00,
2013-12-12 19:28:00,15.2,10.0,30.42,SSW,193,3.0,3.0,79,0.00,,,0.00,weatherlink.com 1.10,2013-12-13 01:28:00,
2013-12-12 19:43:00,14.8,10.0,30.42,SSW,193,3.0,3.0,80,0.00,,,0.00,weatherlink.com 1.10,2013-12-13 01:43:00,
2013-12-12 19:58:00,14.3,10.0,30.42,SSW,193,3.0,4.0,81,0.00,,,0.00,weatherlink.com 1.10,2013-12-13 01:58:00,
2013-12-12 20:13:00,13.9,9.0,30.41,SSW,193,2.0,4.0,82,0.00,,,0.00,weatherlink.com 1.10,2013-12-13 02:13:00,
2013-12-12 20:28:00,13.6,9.0,30.41,SSW,193,1.0,3.0,82,0.00,,,0.00,weatherlink.com 1.10,2013-12-13 02:28:00,
2013-12-12 20:43:00,13.0,9.0,30.40,SSW,193,2.0,3.0,83,0.00,,,0.00,weatherlink.com 1.10,2013-12-13 02:43:00,
2013-12-12 20:58:00,12.6,9.0,30.40,SSW,193,2.0,4.0,84,0.00,,,0.00,weatherlink.com 1.10,2013-12-13 02:58:00,
2013-12-12 21:13:00,12.3,8.0,30.40,SSW,193,0.0,1.0,84,0.00,,,0.00,weatherlink.com 1.10,2013-12-13 03:13:00,
2013-12-12 21:28:00,11.6,8.0,30.40,SSW,193,1.0,3.0,84,0.00,,,0.00,weatherlink.com 1.10,2013-12-13 03:28:00,
2013-12-12 21:43:00,10.7,7.0,30.40,SSW,193,2.0,3.0,85,0.00,,,0.00,weatherlink.com 1.10,2013-12-13 03:43:00,
2013-12-12 21:58:00,10.3,7.0,30.39,SSW,193,1.0,2.0,85,0.00,,,0.00,weatherlink.com 1.10,2013-12-13 03:58:00,
2013-12-12 22:13:00,10.2,7.0,30.39,SSW,193,0.0,3.0,86,0.00,,,0.00,weatherlink.com 1.10,2013-12-13 04:13:00,
2013-12-12 22:28:00,10.1,7.0,30.39,SSW,193,0.0,1.0,87,0.00,,,0.00,weatherlink.com 1.10,2013-12-13 04:28:00,
2013-12-12 22:44:00,10.2,7.0,30.39,SSW,193,2.0,3.0,87,0.00,,,0.00,weatherlink.com 1.10,2013-12-13 04:44:00,
2013-12-12 22:59:00,10.2,7.0,30.38,SSW,193,1.0,2.0,87,0.00,,,0.00,weatherlink.com 1.10,2013-12-13 04:59:00,
2013-12-12 23:14:00,10.1,7.0,30.38,SSW,193,3.0,3.0,88,0.00,,,0.00,weatherlink.com 1.10,2013-12-13 05:14:00,
2013-12-12 23:29:00,10.7,8.0,30.38,SSW,193,3.0,4.0,89,0.00,,,0.00,weatherlink.com 1.10,2013-12-13 05:29:00,
2013-12-12 23:44:00,11.4,9.0,30.37,SSW,193,2.0,4.0,89,0.00,,,0.00,weatherlink.com 1.10,2013-12-13 05:44:00,
2013-12-12 23:59:00,12.0,10.0,30.37,SSW,193,4.0,4.0,90,0.00,,,0.00,weatherlink.com 1.10,2013-12-13 05:59:00,